User: anonymous   Login
Location: Béaulencourt
(50.0796°N, 2.8795°E)
Time: 05:13:25
(UTC+00:00)
Language:

Meteor 2-10 Rocket - Orbit

View from above orbital plane
View from above orbital plane
View from above satellite
View from above satellite

Ground track
Ground track

The orbit is defined by the following mean orbital elements,

1 14453U          26074.88626376 +.00000000 +00000-0 +45635-4 0 00002
2 14453  81.1655 132.2668 0103948 180.8273 179.2752 14.25441018    00
Epoch (UTC): 15 March 2026 21:16:13
Eccentricity: 0.0103948
inclination: 81.1655°
perigee height: 732 km
apogee height: 882 km
right ascension of ascending node: 132.2668°
argument of perigee: 180.8273°
revolutions per day: 14.25441018
mean anomaly at epoch: 179.2752°

The dashed part of the orbit path shows where the satellite is in the earth's shadow,  

DLR